Temperature
21 20 19 19 18 18 18 18 18 18 18 17 17 17 17 17 17 17 17 17 17 17 17 17 17 17 16 16 16 16 16 16 16 17 17 17 17 17 16 17 17 16 16
21 19 19 18 18 18 18 18 18 18 18 17 17 17 17 17 17 17 17 17 17 17 17 17 16 17 17 16 16 16 17 17 16 17 17 18 17 17 17 17 16 17 16
21 20 19 18 18 18 18 18 18 18 18 17 17 17 17 17 17 17 17 17 17 17 17 16 17 17 16 16 16 16 16 17 17 17 17 18 18 18 17 17 17 16 17
22 20 19 18 18 18 18 18 18 18 17 17 17 17 17 17 17 17 17 17 17 17 16 16 17 17 17 16 16 16 16 16 17 17 17 17 17 18 18 17 17 17 16
22 21 19 19 18 18 18 18 18 18 17 17 17 17 17 17 17 17 17 17 17 17 16 16 17 17 16 16 16 16 16 16 17 17 17 17 17 17 18 18 18 17 17
21 20 19 19 18 18 18 17 17 17 17 17 17 17 17 17 17 17 17 17 17 16 16 16 17 17 16 16 16 16 16 16 16 16 17 17 17 17 18 18 18 18 18
21 20 19 19 18 18 18 17 18 17 17 17 17 17 17 17 17 17 17 16 16 16 16 16 17 16 16 16 16 16 16 16 16 16 16 17 17 17 17 18 18 18 18
22 21 20 19 18 18 17 17 17 17 17 17 17 17 17 17 17 17 16 16 16 16 16 17 17 16 16 16 16 16 16 16 16 16 16 16 16 17 17 17 18 18 18
21 21 19 19 18 17 17 17 17 17 17 17 17 17 17 17 16 16 16 16 16 16 16 17 16 16 16 16 16 16 15 16 16 16 16 16 16 16 16 16 17 17 18
21 20 19 18 18 17 17 17 17 17 17 17 17 16 17 17 16 16 16 16 16 16 16 16 16 16 16 16 16 15 15 15 15 16 15 15 16 16 16 16 16 16 17
22 20 19 18 18 17 17 17 17 17 17 17 17 16 16 16 16 16 16 16 16 16 16 16 16 16 16 16 16 15 15 15 15 15 15 15 15 15 16 16 16 16 16
21 20 19 18 18 17 17 17 17 17 17 16 16 16 16 16 16 16 16 16 16 16 16 16 16 16 15 15 15 15 15 15 15 15 15 15 15 15 15 15 15 15 15
20 20 19 18 18 17 17 17 16 16 16 16 16 16 16 16 16 16 16 16 16 16 16 16 16 15 15 15 15 15 15 15 15 15 15 15 14 14 14 14 15 15 15
20 19 18 18 17 17 17 17 16 16 16 16 16 16 16 16 16 16 16 16 16 16 16 16 16 15 15 15 15 15 15 15 15 15 14 14 14 14 14 14 14 14 14
20 19 18 17 17 17 17 16 16 16 16 16 16 16 16 16 16 16 16 16 16 15 15 15 15 15 15 15 15 15 15 15 14 14 14 14 14 14 14 13 13 13 13
19 18 18 17 17 17 16 16 16 16 16 16 16 16 16 16 16 16 15 15 15 15 15 15 15 15 15 15 15 15 14 14 14 14 14 14 13 13 13 13 13 13 12
19 18 18 17 17 17 17 16 16 16 16 16 16 16 16 16 16 16 15 15 15 15 15 15 15 15 14 14 14 14 14 14 13 13 13 13 13 12 12 12 12 12 12
19 18 18 17 17 17 17 16 16 16 16 16 16 16 15 15 15 15 15 15 15 15 15 14 14 14 14 14 14 14 13 13 13 12 12 12 12 11 11 11 11 11 10
18 17 17 17 17 16 16 16 16 16 15 15 15 15 15 15 15 15 15 15 15 14 14 14 14 14 14 13 13 13 13 12 12 11 11 11 11 11 10 10 10 9 9
17 17 17 16 16 16 16 16 16 15 15 15 15 15 15 15 15 15 14 14 14 14 14 13 13 13 13 12 12 12 12 11 11 10 10 10 10 9 9 9 8 8 7
16 16 16 16 16 16 16 15 15 15 15 15 15 15 14 14 14 14 14 14 13 13 13 13 12 12 12 12 11 11 11 10 10 9 9 9 9 8 8 8 8 7 7
15 15 15 15 15 15 15 15 15 15 15 14 14 14 14 14 14 14 13 13 13 12 12 12 11 11 10 10 10 10 10 10 9 9 8 8 8 7 7 7 7 6 6
14 15 15 14 14 14 14 14 14 14 14 14 14 14 13 13 13 13 13 12 12 11 11 11 10 10 9 9 9 9 9 9 8 8 7 7 7 6 6 6 6 5 5
14 14 14 14 14 14 14 14 14 13 13 13 13 12 12 12 12 11 11 11 11 11 10 10 9 9 8 8 8 8 7 7 7 7 6 6 5 5 5 5 5 5 4
13 13 13 13 13 13 13 13 13 13 13 12 12 11 11 11 11 10 10 10 10 10 10 9 9 8 7 7 7 7 6 6 6 6 5 5 5 5 5 4 4 4 4
12 12 12 12 12 12 12 12 12 12 12 11 11 11 10 10 10 9 9 8 8 8 8 8 8 7 7 6 6 6 6 6 5 5 5 5 5 4 4 4 4 4 3
Wind_Speed
9 10 13 13 13 13 14 15 15 14 12 11 11 10 9 8 8 7 9 10 9 9 8 6 7 7 6 6 6 5 6 5 4 4 4 4 4 4 4 4 4 5 5
10 12 13 13 13 14 14 15 15 15 14 11 10 9 9 8 8 7 8 10 10 9 9 7 7 8 6 6 6 6 5 4 5 4 3 4 5 5 5 5 5 4 5
11 12 13 13 13 14 14 14 15 15 15 13 10 9 8 6 7 8 8 9 10 10 9 9 8 7 8 7 8 8 7 5 5 4 4 3 3 4 5 5 5 4 4
10 12 13 13 14 13 13 14 14 14 14 13 13 14 12 11 10 9 8 9 10 11 11 10 9 8 8 7 8 8 7 6 5 5 4 3 2 2 3 6 6 5 5
9 11 12 13 12 13 12 13 14 14 14 15 15 14 13 10 8 8 9 10 9 10 11 10 9 8 8 8 7 7 8 7 6 5 5 4 3 5 3 2 4 5 5
8 9 10 11 11 11 11 12 13 14 15 15 15 15 14 12 11 11 10 10 9 9 11 11 9 9 8 8 8 8 9 7 6 5 5 5 4 4 4 3 4 4 4
8 10 11 11 11 11 11 12 12 13 14 15 15 15 14 13 13 12 11 10 9 9 11 10 9 9 8 8 8 8 7 7 7 7 6 5 4 3 4 4 3 2 3
8 9 10 10 10 11 11 11 12 12 13 14 14 13 13 10 10 12 10 10 9 9 10 10 10 10 10 9 8 8 8 6 7 7 5 4 4 4 4 3 3 4 4
8 9 10 9 10 10 10 11 11 11 12 13 13 12 12 11 10 10 10 9 8 8 10 10 10 9 9 9 8 7 7 7 7 7 7 6 4 4 3 3 4 5 4
8 9 9 9 9 9 9 10 10 10 10 10 10 9 10 10 9 9 10 9 9 9 10 10 10 9 9 9 8 8 7 7 6 5 5 4 4 3 4 4 4 4 5
8 9 9 9 9 9 9 9 9 9 9 9 9 9 9 9 9 9 10 9 9 10 10 10 11 10 10 9 8 8 8 8 7 6 6 5 4 4 4 4 4 4 4
8 9 9 9 8 8 9 9 9 9 9 9 9 9 8 8 8 9 9 9 9 10 10 10 10 10 10 10 9 9 8 8 8 7 6 6 5 4 4 3 4 3 3
9 9 9 8 8 8 8 8 9 9 9 9 9 9 9 9 8 8 8 8 8 9 9 10 10 10 10 10 9 8 8 7 6 6 6 6 5 4 3 3 3 3 3
9 9 8 8 7 7 8 8 8 8 9 9 9 9 9 9 9 8 8 8 9 9 9 9 9 9 9 9 9 8 7 6 5 4 4 3 4 4 3 3 2 2 2
9 8 8 8 8 7 7 7 8 8 8 9 9 9 9 9 8 8 8 8 8 9 9 9 8 8 7 8 8 8 7 7 6 5 5 5 7 7 4 1 1 0 1
8 8 8 8 8 8 8 7 7 8 8 8 8 8 8 9 8 8 8 8 8 8 9 9 9 8 6 8 9 8 7 7 7 7 7 8 9 11 12 13 13 9 4
7 7 7 7 7 8 8 8 8 8 9 8 8 8 8 9 9 9 8 8 8 8 8 8 8 7 8 11 10 8 7 7 6 6 6 6 7 8 9 11 13 14 14
5 6 6 6 6 7 8 8 8 8 8 8 8 8 9 9 9 8 8 8 8 8 8 8 8 8 9 12 12 11 8 8 8 7 7 7 7 7 7 9 10 11 10
4 4 5 6 6 7 7 8 8 8 8 8 8 8 8 9 10 9 9 8 8 8 8 8 9 10 10 11 12 11 10 10 11 9 9 9 9 9 7 9 10 9 9
4 3 4 5 6 6 8 9 9 8 8 7 7 7 7 9 10 10 10 9 9 9 9 10 9 10 10 10 10 10 9 11 11 10 11 13 12 10 8 8 8 8 6
4 4 4 5 5 5 7 8 8 7 7 7 7 8 8 9 10 10 9 10 10 11 11 12 11 11 10 11 10 8 8 10 11 10 9 10 13 13 12 9 8 6 3
5 5 5 5 4 5 7 7 7 7 8 9 9 8 8 8 9 10 10 11 12 12 12 12 12 10 10 11 12 13 12 11 12 10 9 10 13 13 11 9 7 2 2
5 4 5 6 5 5 6 7 7 8 9 10 9 9 10 8 9 10 10 10 10 10 10 10 11 10 9 11 15 16 16 14 11 11 14 13 12 10 9 8 2 1 2
5 5 6 6 6 5 6 7 8 9 11 11 11 10 10 10 10 8 8 8 8 9 10 10 11 10 9 9 9 10 12 14 13 12 12 10 7 6 6 4 3 4 5
5 6 7 7 7 7 7 7 8 11 12 12 12 12 11 12 12 11 10 9 8 8 10 10 10 10 10 8 9 8 8 8 9 8 6 5 5 5 5 5 4 4 4
6 7 8 8 8 8 8 7 8 11 13 12 12 11 11 11 12 13 14 20 16 18 17 14 13 12 13 14 14 14 13 11 6 5 6 5 5 4 4 4 4 4 5
Wind_Direction
178 175 176 177 176 178 180 182 184 183 181 179 181 183 184 186 188 191 186 191 194 191 202 201 185 200 192 191 186 190 183 192 182 190 182 187 203 202 194 212 211 197 200
172 170 173 176 178 181 184 184 185 183 184 185 185 185 181 191 190 193 191 197 197 198 201 207 200 196 189 190 193 197 205 188 192 216 204 194 192 206 197 193 202 206 198
179 174 176 180 183 185 187 187 186 185 187 184 180 175 173 183 189 193 195 198 199 203 209 204 210 199 202 192 195 197 207 201 197 225 238 227 201 177 179 199 196 200 211
182 178 180 184 187 187 187 187 185 185 185 185 187 186 189 194 198 193 193 194 200 204 205 206 208 206 209 193 199 201 208 209 206 201 237 285 341 254 177 188 186 188 202
182 180 183 186 188 186 187 188 186 187 188 192 193 194 197 199 191 192 190 194 196 203 204 204 203 205 211 202 204 191 210 210 218 210 203 210 218 249 257 187 183 186 190
174 174 177 180 184 185 186 187 187 190 190 193 196 199 200 196 191 196 195 197 195 200 202 203 202 204 206 199 200 201 203 217 222 232 222 215 219 230 234 224 213 193 171
171 171 175 179 182 184 186 185 186 189 189 191 195 198 199 196 196 198 198 198 197 198 197 200 199 201 202 202 200 201 208 205 210 220 225 231 240 247 246 247 233 218 179
170 173 176 177 179 183 184 185 186 186 186 189 192 195 195 198 201 202 200 200 203 201 190 196 197 198 201 202 198 201 199 198 205 209 213 226 230 236 242 251 255 246 221
169 170 171 171 174 179 182 185 185 185 185 187 188 193 195 199 200 200 203 201 200 195 189 192 195 197 197 197 194 202 196 192 202 201 200 222 217 228 242 254 265 270 266
166 163 165 166 167 170 172 177 182 184 184 184 186 190 194 197 200 203 203 200 198 196 191 192 191 190 189 190 196 194 195 198 204 208 203 218 221 218 226 239 251 266 277
162 159 158 161 164 166 168 173 176 179 181 183 184 186 190 194 200 201 202 198 196 193 193 193 190 189 188 186 192 200 192 198 197 197 197 204 226 224 224 227 238 244 254
158 156 157 161 168 170 173 176 179 183 183 182 182 184 189 190 196 199 197 195 192 191 193 191 188 189 189 189 191 196 193 195 197 196 194 199 200 209 235 237 240 246 262
159 157 157 165 172 174 175 177 179 183 181 179 183 186 189 190 193 194 187 186 185 186 187 185 184 185 185 187 189 189 190 190 191 194 195 201 202 200 208 233 241 242 239
161 163 162 165 168 168 170 176 180 179 178 178 181 186 188 188 187 184 181 181 179 177 175 176 178 179 182 182 182 181 176 168 166 170 170 175 180 181 191 199 222 247 248
163 164 166 166 168 169 171 176 178 178 177 179 183 184 182 180 178 175 175 173 172 171 168 167 166 166 172 177 172 167 162 157 153 140 127 113 94 72 63 75 114 189 250
166 165 166 169 172 173 175 177 176 175 175 180 180 175 171 169 167 167 165 160 159 158 155 157 156 158 161 130 137 153 150 148 144 134 123 113 101 91 79 68 59 47 40
163 168 171 173 172 176 176 178 177 174 173 174 171 167 165 162 161 156 153 153 150 146 144 146 144 140 124 118 125 133 143 139 131 128 129 121 110 111 107 95 86 68 57
160 164 169 169 171 170 171 172 172 169 170 170 167 164 160 156 150 145 142 142 138 135 134 132 130 125 115 112 116 118 123 114 108 106 112 113 108 102 106 103 90 75 61
135 151 161 161 163 165 164 160 159 160 159 161 161 162 159 154 146 140 138 135 130 127 124 121 120 117 111 109 118 122 118 110 102 96 92 99 98 79 84 102 100 93 87
98 123 140 146 153 161 160 158 156 156 155 154 152 149 148 147 142 138 135 129 123 119 116 111 108 110 108 102 107 117 121 115 108 97 85 76 83 72 64 95 98 94 85
90 105 122 134 144 153 158 157 150 147 144 138 133 130 130 132 131 128 126 125 120 115 111 104 97 95 96 94 89 94 119 121 115 106 97 88 80 73 63 68 82 80 75
89 100 110 109 115 134 144 142 138 135 131 127 124 121 120 122 124 123 122 122 122 117 110 104 97 89 85 84 84 81 83 98 108 105 102 98 90 81 73 75 75 45 303
91 96 107 103 98 111 132 136 136 132 126 120 117 115 112 110 115 119 121 121 121 119 117 114 108 101 96 89 85 84 84 86 98 100 102 105 107 106 92 89 75 336 32
97 102 103 100 98 100 109 118 125 124 121 117 113 109 107 102 95 95 103 114 121 123 123 119 115 111 107 105 105 104 101 103 105 108 111 112 106 107 108 120 85 56 41
96 101 102 100 96 99 102 110 118 120 116 113 109 106 102 100 92 82 70 82 78 100 116 118 118 118 114 100 92 106 108 110 112 122 124 118 111 95 82 72 58 47 39
101 100 98 97 94 94 96 102 111 118 118 114 110 109 108 106 104 100 84 64 72 73 75 81 97 94 99 103 95 92 92 94 106 118 107 99 89 81 71 62 56 45 30
Height
1493 1494 1496 1499 1503 1506 1509 1512 1516 1519 1523 1527 1530 1534 1537 1541 1545 1548 1551 1554 1556 1559 1561 1565 1566 1568 1571 1572 1574 1575 1577 1579 1580 1582 1583 1583 1584 1585 1585 1586 1587 1588 1588
1491 1493 1495 1498 1501 1503 1506 1510 1513 1516 1520 1524 1528 1532 1535 1539 1543 1546 1548 1551 1554 1557 1560 1563 1565 1567 1569 1570 1572 1574 1576 1578 1579 1581 1581 1582 1584 1583 1584 1585 1585 1586 1587
1488 1491 1494 1497 1499 1501 1504 1507 1510 1513 1517 1521 1525 1529 1533 1536 1539 1543 1546 1549 1552 1555 1558 1560 1563 1565 1567 1569 1570 1572 1575 1577 1578 1579 1580 1581 1580 1582 1583 1583 1584 1585 1585
1487 1489 1492 1495 1497 1499 1502 1505 1508 1511 1515 1518 1522 1525 1528 1532 1536 1539 1543 1546 1549 1553 1555 1558 1560 1562 1565 1567 1569 1571 1573 1575 1576 1577 1578 1579 1579 1580 1581 1582 1582 1583 1584
1484 1487 1490 1492 1495 1498 1500 1502 1505 1508 1512 1515 1518 1522 1526 1530 1533 1537 1540 1543 1547 1550 1553 1555 1558 1560 1563 1565 1566 1568 1571 1573 1574 1576 1577 1578 1579 1579 1580 1580 1581 1582 1583
1483 1486 1488 1491 1493 1496 1498 1500 1502 1505 1508 1511 1515 1519 1523 1526 1530 1533 1537 1540 1544 1546 1549 1552 1555 1557 1560 1562 1564 1566 1568 1570 1572 1574 1575 1577 1578 1578 1579 1579 1580 1580 1581
1482 1484 1487 1489 1491 1494 1496 1498 1500 1502 1505 1508 1511 1515 1519 1523 1526 1530 1534 1537 1541 1543 1546 1549 1552 1554 1557 1559 1561 1563 1566 1568 1569 1571 1573 1575 1576 1577 1578 1578 1578 1579 1580
1480 1483 1485 1487 1489 1492 1494 1496 1497 1500 1503 1506 1509 1512 1516 1520 1524 1528 1531 1534 1537 1540 1543 1546 1548 1551 1554 1557 1559 1562 1563 1565 1567 1569 1570 1572 1574 1575 1576 1577 1578 1578 1578
1480 1482 1484 1486 1488 1490 1492 1494 1496 1498 1501 1504 1507 1510 1514 1518 1521 1524 1528 1531 1534 1537 1539 1542 1545 1548 1551 1554 1556 1559 1560 1562 1564 1567 1568 1570 1571 1572 1574 1575 1576 1577 1576
1479 1481 1483 1485 1487 1489 1491 1493 1495 1497 1499 1502 1505 1508 1511 1515 1518 1521 1524 1527 1531 1534 1536 1539 1542 1545 1548 1551 1553 1556 1558 1560 1562 1564 1565 1567 1569 1570 1571 1572 1573 1574 1575
1478 1480 1483 1485 1487 1489 1490 1492 1494 1496 1498 1501 1503 1506 1509 1512 1516 1518 1521 1524 1527 1530 1533 1536 1539 1542 1545 1548 1550 1553 1555 1557 1559 1561 1563 1564 1566 1567 1569 1570 1571 1571 1572
1477 1480 1482 1484 1486 1488 1490 1492 1493 1495 1497 1500 1502 1505 1508 1510 1513 1516 1519 1522 1525 1528 1531 1533 1536 1539 1542 1545 1548 1550 1553 1555 1557 1559 1560 1562 1563 1564 1566 1567 1568 1568 1569
1477 1480 1482 1484 1486 1488 1490 1491 1493 1495 1497 1499 1501 1503 1506 1508 1511 1514 1517 1519 1522 1525 1528 1531 1534 1536 1539 1542 1545 1548 1550 1552 1555 1556 1558 1559 1561 1561 1563 1564 1565 1565 1566
1477 1479 1482 1483 1485 1487 1489 1490 1492 1494 1496 1498 1500 1502 1504 1506 1509 1512 1515 1517 1520 1522 1525 1528 1531 1534 1537 1540 1542 1545 1548 1550 1552 1553 1555 1556 1558 1559 1560 1561 1561 1562 1562
1477 1479 1481 1483 1484 1486 1488 1490 1491 1493 1495 1496 1498 1500 1502 1505 1508 1510 1513 1515 1518 1520 1523 1525 1528 1531 1534 1537 1540 1542 1545 1547 1549 1550 1552 1554 1555 1556 1557 1558 1558 1559 1560
1476 1478 1480 1482 1483 1485 1487 1489 1490 1492 1493 1495 1497 1499 1501 1504 1506 1509 1511 1513 1515 1518 1521 1523 1526 1529 1532 1534 1537 1540 1542 1544 1546 1548 1549 1551 1552 1553 1554 1555 1555 1556 1557
1475 1477 1478 1480 1482 1484 1486 1487 1489 1491 1492 1494 1496 1498 1500 1502 1504 1507 1510 1512 1514 1517 1520 1522 1524 1527 1529 1532 1535 1537 1539 1542 1543 1545 1547 1549 1550 1551 1551 1552 1553 1553 1553
1474 1476 1477 1479 1481 1483 1484 1486 1488 1490 1491 1493 1495 1497 1499 1501 1503 1506 1508 1510 1512 1515 1518 1521 1523 1526 1528 1530 1533 1536 1538 1540 1541 1543 1545 1547 1548 1549 1550 1551 1551 1551 1551
1473 1475 1476 1478 1479 1481 1483 1485 1486 1488 1490 1492 1494 1496 1498 1500 1502 1504 1507 1509 1511 1514 1517 1520 1522 1524 1526 1529 1532 1534 1536 1538 1540 1542 1544 1545 1546 1547 1548 1549 1549 1549 1549
1472 1474 1475 1476 1478 1480 1482 1483 1485 1487 1489 1491 1493 1495 1497 1499 1501 1503 1506 1509 1511 1513 1516 1519 1521 1524 1526 1528 1530 1533 1535 1536 1539 1541 1543 1544 1545 1546 1547 1548 1548 1549 1549
1472 1473 1474 1476 1477 1479 1481 1482 1484 1485 1488 1489 1492 1494 1496 1498 1500 1503 1506 1508 1511 1513 1515 1517 1520 1523 1525 1527 1530 1532 1535 1537 1538 1540 1542 1543 1545 1546 1547 1547 1548 1548 1548
1472 1473 1474 1475 1476 1477 1479 1480 1482 1484 1486 1488 1490 1492 1495 1497 1499 1502 1504 1507 1510 1512 1515 1517 1519 1523 1525 1528 1530 1532 1535 1537 1538 1540 1542 1543 1545 1546 1546 1547 1547 1547 1548
1472 1473 1473 1474 1475 1476 1478 1479 1481 1482 1484 1486 1488 1491 1494 1496 1499 1501 1504 1506 1509 1512 1514 1517 1520 1523 1526 1528 1531 1532 1534 1536 1538 1540 1542 1543 1545 1546 1547 1547 1547 1548 1550
1472 1473 1474 1474 1475 1476 1476 1478 1480 1481 1483 1485 1487 1490 1492 1495 1498 1501 1504 1506 1509 1511 1514 1517 1521 1523 1526 1529 1531 1533 1535 1537 1539 1541 1543 1544 1546 1547 1548 1549 1549 1550 1549
1473 1474 1474 1474 1475 1475 1476 1478 1479 1481 1483 1485 1487 1490 1493 1495 1498 1501 1504 1507 1509 1512 1515 1518 1522 1525 1528 1531 1533 1535 1537 1539 1540 1542 1545 1548 1549 1550 1550 1551 1550 1550 1550
1473 1474 1474 1474 1475 1476 1477 1478 1480 1482 1483 1486 1488 1491 1494 1497 1499 1502 1505 1509 1512 1515 1519 1521 1524 1527 1530 1533 1535 1537 1539 1541 1543 1546 1548 1550 1550 1551 1552 1552 1552 1551 1550